GW7273 Weather Reports


Display with metric or nautical units.
time (UTC)temp
F
wind
direction
speed
MPH
gust
MPH
rain 1hr
in
rain 24hr
in
rain mn
in
humidity
%
barometer
mb
20260508021540 45 26 2.0 7.0 0.00 0.00 0.00 77 1018.0
20260508020040 45 304 2.0 5.0 0.00 0.00 0.00 78 1017.8
20260508014540 45 15 2.0 6.0 0.00 0.00 0.00 78 1017.7
20260508013043 45 357 2.0 6.0 0.00 0.00 0.00 79 1017.8
20260508011546 45 336 3.0 7.0 0.00 0.00 0.00 79 1017.9
20260508010043 45 4 2.0 6.0 0.00 0.00 0.00 79 1017.9
20260508004542 45 344 1.0 4.0 0.00 0.00 0.00 79 1017.8
20260508003041 45 344 1.0 3.0 0.00 0.00 0.00 78 1017.9
20260508001540 45 15 1.0 3.0 0.00 0.00 0.00 78 1017.9
20260508000048 45 7 2.0 6.0 0.00 0.00 0.00 79 1017.8
20260507234546 46 325 2.0 4.0 0.00 0.00 0.00 77 1017.9
20260507233040 46 38 2.0 5.0 0.00 0.00 0.00 76 1017.9
20260507231543 46 10 2.0 5.0 0.00 0.00 0.00 77 1017.9
20260507230038 46 16 2.0 4.0 0.00 0.00 0.00 79 1017.9
20260507224542 46 4 1.0 3.0 0.00 0.00 0.00 77 1017.9
20260507223043 46 357 0.0 5.0 0.00 0.00 0.00 76 1018.0
20260507221542 47 0 0.0 6.0 0.00 0.00 0.00 76 1018.0
20260507220040 47 113 1.0 5.0 0.00 0.00 0.00 75 1017.9
20260507214540 47 56 2.0 6.0 0.00 0.00 0.00 75 1017.7
20260507213041 47 75 1.0 5.0 0.00 0.00 0.00 76 1017.6
20260507211550 48 10 1.0 5.0 0.00 0.00 0.00 78 1017.4
20260507210048 48 6 1.0 7.0 0.00 0.00 0.00 78 1017.2
20260507204543 48 16 1.0 5.0 0.00 0.00 0.00 79 1017.1
20260507203041 48 32 1.0 4.0 0.00 0.00 0.00 79 1017.0
20260507201540 47 6 2.0 5.0 0.00 0.00 0.00 80 1016.7
20260507200037 48 344 1.0 4.0 0.00 0.00 0.00 79 1016.6
20260507194544 48 346 2.0 4.0 0.00 0.00 0.00 79 1016.7
20260507193051 48 30 2.0 5.0 0.00 0.00 0.00 78 1016.5
20260507191541 48 15 2.0 7.0 0.00 0.00 0.00 78 1016.6
20260507190041 48 6 2.0 7.0 0.00 0.00 0.00 77 1016.5
20260507184541 48 356 3.0 7.0 0.00 0.00 0.00 77 1016.1
20260507183045 48 11 3.0 7.0 0.00 0.00 0.00 78 1016.0
20260507181543 49 18 3.0 11.0 0.00 0.00 0.00 77 1016.0
20260507180042 49 356 3.0 11.0 0.00 0.00 0.00 78 1015.5
20260507174559 49 321 4.0 10.0 0.00 0.00 0.00 77 1015.3
20260507173040 49 39 4.0 10.0 0.00 0.00 0.00 76 1015.2
20260507171550 49 358 3.0 8.0 0.00 0.00 0.00 76 1015.0
20260507170036 50 355 6.0 9.0 0.00 0.00 0.00 75 1014.9
20260507164542 50 317 3.0 11.0 0.00 0.00 0.00 75 1014.6
20260507163041 50 328 3.0 8.0 0.00 0.00 0.00 74 1014.7
20260507161544 50 11 2.0 10.0 0.00 0.00 0.00 75 1014.7
20260507160108 50 29 4.0 8.0 0.00 0.00 0.00 75 1014.7
20260507154540 50 305 3.0 8.0 0.00 0.00 0.00 76 1014.9
20260507153035 49 359 5.0 10.0 0.00 0.00 0.00 77 1014.9
20260507151542 49 11 5.0 10.0 0.00 0.00 0.00 77 1014.9
20260507150041 48 357 3.0 8.0 0.00 0.00 0.00 78 1014.8
20260507144543 48 4 3.0 8.0 0.00 0.00 0.00 80 1014.9
20260507143038 48 26 3.0 7.0 0.00 0.00 0.00 80 1014.8
20260507141537 48 328 4.0 9.0 0.00 0.00 0.00 79 1015.0
20260507140045 48 18 3.0 9.0 0.00 0.00 0.00 79 1014.6
20260507134544 48 338 2.0 6.0 0.00 0.00 0.00 80 1014.6
20260507133042 48 15 1.0 7.0 0.00 0.00 0.00 81 1014.7
20260507131606 47 326 1.0 8.0 0.00 0.00 0.00 83 1014.7
20260507130037 47 357 3.0 8.0 0.00 0.00 0.00 83 1014.5
20260507124546 47 292 4.0 9.0 0.00 0.00 0.00 81 1014.3
20260507123042 47 360 4.0 9.0 0.00 0.00 0.00 81 1014.3
20260507121543 47 25 3.0 7.0 0.00 0.00 0.00 83 1014.2
20260507120044 47 9 4.0 7.0 0.00 0.00 0.00 83 1014.0
20260507114540 48 3 2.0 9.0 0.00 0.00 0.00 82 1013.8
20260507113103 47 342 4.0 10.0 0.00 0.00 0.00 82 1013.5
20260507111541 48 4 2.0 7.0 0.00 0.00 0.00 81 1013.5
20260507110047 47 115 3.0 8.0 0.00 0.00 0.00 81 1013.7
20260507104554 47 349 3.0 7.0 0.00 0.00 0.00 82 1013.6
20260507103042 47 29 4.0 8.0 0.00 0.00 0.00 82 1013.4
20260507101542 47 340 3.0 7.0 0.00 0.00 0.00 84 1013.3
20260507100052 47 323 3.0 7.0 0.00 0.00 0.00 84 1012.9
20260507094539 47 14 3.0 9.0 0.00 0.00 0.00 84 1012.6
20260507093042 47 296 5.0 11.0 0.00 0.00 0.00 82 1012.5
20260507091547 47 11 2.0 9.0 0.00 0.00 0.00 82 1012.3
20260507090042 47 66 2.0 7.0 0.00 0.00 0.00 83 1012.2
20260507084552 47 42 2.0 8.0 0.00 0.00 0.00 82 1012.2
20260507083041 46 63 4.0 9.0 0.00 0.00 0.00 82 1012.2
20260507081536 46 15 4.0 10.0 0.00 0.00 0.00 83 1012.1
20260507080047 46 56 3.0 7.0 0.00 0.00 0.00 84 1011.8
20260507074546 46 48 3.0 7.0 0.00 0.00 0.00 85 1011.5
20260507073043 46 43 2.0 9.0 0.00 0.00 0.00 86 1011.4
20260507071543 45 71 2.0 7.0 0.00 0.00 0.00 86 1011.3
20260507070054 45 354 3.0 8.0 0.00 0.00 0.00 87 1011.3
20260507064544 45 186 2.0 10.0 0.00 0.00 0.00 87 1011.1
20260507063038 45 301 3.0 7.0 0.00 0.00 0.00 88 1011.0
20260507061542 45 41 3.0 9.0 0.00 0.00 0.00 89 1010.9
20260507060045 44 326 4.0 9.0 0.00 0.00 0.00 90 1011.0
20260507054542 44 352 3.0 9.0 0.00 0.00 0.00 91 1010.9
20260507053041 44 21 5.0 11.0 0.00 0.00 0.00 91 1010.6
20260507051540 44 20 5.0 11.0 0.00 0.00 0.00 91 1010.3
20260507044551 44 322 4.0 10.0 0.00 0.00 0.00 90 1010.2
20260507043041 44 23 5.0 10.0 0.00 0.00 0.00 90 1010.3
20260507041544 44 344 3.0 9.0 0.00 0.00 0.00 91 1009.8
20260507040045 44 28 4.0 9.0 0.00 0.00 0.00 91 1009.8
20260507034547 45 340 4.0 9.0 0.00 0.00 0.00 90 1009.5
20260507033046 45 23 4.0 10.0 0.00 0.00 0.00 90 1009.4
20260507031543 45 354 4.0 10.0 0.00 0.00 0.00 89 1009.1
20260507030042 45 325 5.0 11.0 0.00 0.00 0.00 88 1009.1
20260507024544 45 360 2.0 6.0 0.00 0.00 0.00 89 1009.2
20260507023040 44 19 2.0 9.0 0.00 0.00 0.00 90 1009.1